ZHUHAI-1 02 (CAS-4B) (42759 NORAD) Tracking and Keplerian Element Data

This shows tracking and keplerian element data for the satellite.

Feedback or suggestion? Click here.




ElementValue
Catalog42759
NameZHUHAI-1 02 (CAS-4B)
Epoch Orbit23634
Epoch Day269.00096065
Epoch Year2021
RAAN348.2423
Inclination43.0194
Eccentricity0.0007097
Argument of Perigee66.1024
Mean Anonmoly282.759
Mean Motion15.10386286
Decay Rate1.008E-05
L11 42759U 17034B 21269.00096065 .00001008 00000-0 73560-4 0 9992
L22 42759 43.0194 348.2423 0007097 66.1024 282.7590 15.10386286236349

Live tracking and technical data element details for ZHUHAI-1 02 (CAS-4B) (NORAD 42759). ZHUHAI-1 02 (CAS-4B) can be tracked NOW for your location showing map with azimuth and elevation plus other details from your city location.

Track the satellite on the map from your city or location and see movement details for azimuth, elevation, latitude, longitude, range, height, and movement on the map or in text.







IsCatalogInMostPopularTable: catalog: 42759, numindb: 780
Update: records affected: 1



GetName: 42759 ZHUHAI-1 02 (CAS-4B)

Hit Count: updated at: Mon, 27 Sep 2021 01:02:24 GMT